Regional Weather Roundup
Issued by NWS Burlington, VT

Home | Current Version | Previous Version | Text Only | Print | Product List | Glossary On
Versions: 1 2 3 4 5 6 7 8 9 10 11 12 13 14 15 16 17 18 19 20 21 22 23 24 25 26 27 28 29 30 31 32 33 34 35 36 37 38 39 40 41 42 43 44 45 46 47 48 49 50
000
ASUS41 KBTV 062310
RWRBTV
VERMONT REGIONAL WEATHER ROUNDUP
NATIONAL WEATHER SERVICE BURLINGTON VT
700 PM EDT FRI MAY 06 2016

NOTE: "FAIR" INDICATES FEW OR NO CLOUDS BELOW 12,000 FEET WITH NO
SIGNIFICANT WEATHER AND/OR OBSTRUCTIONS TO VISIBILITY.

* THESE REPORTS ARE NOT UNDER NWS QUALITY CONTROL AND/OR DO NOT
  REPORT WEATHER SUCH AS PRECIPITATION AND FOG.

VTZ001>019-070000-
_____VERMONT_____


CITY           SKY/WX    TMP DP  RH WIND       PRES   REMARKS
BURLINGTON     MOCLDY    67  40  37 NW12      29.79S
MONTPELIER     CLOUDY    66  46  48 S10       29.85R
MORRISVILLE    FAIR      67  43  41 NE7       29.81R
ST. JOHNSBURY*   N/A     70  46  42 MISG      29.79R
LYNDONVILLE*   CLOUDY    69  44  41 E5        29.82S
MIDDLEBURY*    CLOUDY    62  43  48 CALM      29.80S
RUTLAND*       CLOUDY    61  51  70 E6        29.82S
SPRINGFIELD    CLOUDY    62  50  64 SE5       29.82R
HIGHGATE*      FAIR      69  43  38 N5        29.79S
NEWPORT*       FAIR      64  45  48 N10       29.82S
BENNINGTON     LGT RAIN  57  55  93 CALM      29.80R
SUTTON*          N/A     68 N/A N/A MISG        N/A

_____LAKE CHAMPLAIN_____


CITY           SKY/WX    TMP DP  RH WIND       PRES   REMARKS
COLCHESTER RF*   N/A     59  43  55 N10         N/A
DIAMOND ISL*     N/A     61  43  51 N10         N/A

$$

NYZ007-026>031-035-052-083-087-070000-
_____NORTHERN NEW YORK_____


CITY           SKY/WX    TMP DP  RH WIND       PRES   REMARKS
PLATTSBURGH    CLOUDY    67  41  38 N9        29.79F
SARANAC LAKE   CLOUDY    61  39  44 E9        29.81S
MASSENA        CLOUDY    65  34  31 NE10      29.82F
OGDENSBURG*    SUNNY     66  32  28 E8        29.80F
POTSDAM*       PTSUNNY   64  43  45 NE7       29.80
WATERTOWN      CLOUDY    59  42  53 N6        29.80R
FT DRUM        PTSUNNY   62  39  42 NE8       29.79S
ALBANY         LGT RAIN  56  53  90 CALM      29.80S
GLENS FALLS    CLOUDY    63  44  50 CALM      29.80R

$$
NHZ002-005-011-070000-
_____NEW HAMPSHIRE_____


CITY           SKY/WX    TMP DP  RH WIND       PRES   REMARKS
LEBANON        CLOUDY    67  49  52 SE6       29.81R
KEENE          CLOUDY    61  46  59 CALM      29.84R
MT WASHINGTON  FOG       39  39 100 E15         N/A  VSB 1/16WCI  31
PLYMOUTH       CLOUDY    65  48  54 E5        29.84R
WHITEFIELD     PTCLDY    67  45  45 S10G18    29.82R

$$

_____REGIONAL QUEBEC LOCATIONS_____


CITY           SKY/WX    TMP DP  RH WIND       PRES   REMARKS
MONTREAL       MOSUNNY   68  30  24 NE13G20   29.81F
QUEBEC CITY    PTCLDY    61  32  33 E6        29.88S
SHERBROOKE     CLEAR     68  39  34 N7        29.81S

_____REGIONAL ONTARIO LOCATIONS_____


CITY           SKY/WX    TMP DP  RH WIND       PRES   REMARKS
OTTAWA         PTSUNNY   66  32  28 E13       29.82S

______KEY______
VSB  - VISIBILITY IN MILES
WCI  - WIND CHILL INDEX
HX   - HEAT INDEX
$$
NNNN



USA.gov is the U.S. government's official web portal to all federal, state and local government web resources and services.